Regional Weather Roundup
Issued by NWS

Home | Current Version | Previous Version | Text Only | Print | Product List | Glossary On
Versions: 1 2 3 4 5 6 7 8 9 10 11 12 13 14 15 16 17 18 19 20 21 22 23 24 25 26 27 28 29 30 31 32 33 34 35 36 37 38 39 40 41 42 43 44 45 46 47 48 49 50
000
ASUS44 KLIX 200301
RWRLA
LOUISIANA WEATHER ROUNDUP
NATIONAL WEATHER SERVICE NEW ORLEANS LA
1000 PM CDT SUN OCT 19 2014

NOTE: "FAIR" INDICATES FEW OR NO CLOUDS BELOW 12,000 FEET WITH NO
      SIGNIFICANT WEATHER AND/OR OBSTRUCTIONS TO VISIBILITY.
      SKY/WX - SKY CONDITION AND SIGNIFICANT WEATHER.
      TMP - AIR TEMPERATURE.    DP   - DEWPOINT TEMPERATURE.
      RH  - RELATIVE HUMIDITY.  PRES - PRESSURE.
      HX  - HEAT INDEX.         WCI  - WIND CHILL INDEX.

*  THESE STATIONS ARE NOT NWS OR FAA STATIONS AND ARE NOT UNDER
   NWS QUALITY CONTROL.

LAZ040-048-061>063-065-066-069-200400-
SOUTHEAST LOUISIANA

CITY           SKY/WX    TMP DP  RH WIND       PRES   REMARKS
N.O. AUDUBON     N/A     67  59  74 MISG        N/A
N.O. INTL ARPT PTCLDY    64  56  75 E3        30.07S
N.O. LAKEFRONT CLEAR     68  58  70 SE3       30.08R
N.O. DOWNTOWN* FAIR      70  54  56 CALM      30.08R
SLIDELL        CLEAR     57  54  89 CALM      30.08R
BATON ROUGE    CLEAR     59  56  89 CALM      30.07S
BOOTHVILLE     CLEAR     71  62  73 E6        30.07S
BELLE CHASSE   CLEAR     60  55  83 CALM      30.07S
BOGALUSA*        N/A     55  51  87 CALM      30.10S
NEW ROADS*     FAIR      60  56  85 N5        30.08S
GONZALES*      FAIR      60  60 100 CALM      30.07S
HAMMOND*       NOT AVBL
HOUMA*         CLEAR     63  60  90 CALM      30.07R
PORT FOURCHON* PTCLDY    72  66  83 NE10      30.09S

$$

LAZ041-044-053-054-200400-
SOUTHWEST LOUISIANA

CITY           SKY/WX    TMP DP  RH WIND       PRES   REMARKS
LAKE CHARLES   PTCLDY    63  57  81 NE6       30.06S
LAFAYETTE      CLEAR     63  57  81 NE3       30.07R
PATTERSON      NOT AVBL
SALT POINT       N/A     68  63  84 CALM      30.05S
NEW IBERIA     CLEAR     67  57  70 NE8       30.07R
CHENAULT AIRPK PTCLDY    64  57  79 NE6       30.07S

$$

LAZ027-028-200400-
CENTRAL LOUISIANA

CITY           SKY/WX    TMP DP  RH WIND       PRES   REMARKS
FORT POLK      CLEAR     60  54  80 NE5       30.08R
ALEXANDRIA INT CLEAR     58  53  84 CALM      30.08R
ALEXANDRIA     CLEAR     53  51  93 CALM      30.10R

$$

LAZ001-002-200400-
NORTHWEST LOUISIANA

CITY           SKY/WX    TMP DP  RH WIND       PRES   REMARKS
SHREVEPORT     CLEAR     56  52  86 CALM      30.09S
BARKSDALE AFB  CLEAR     55  52  92 CALM      30.10R
DTN SHREVEPORT CLEAR     56  51  84 CALM      30.10R

$$

LAZ014-016-200400-
NORTHEAST LOUISIANA

CITY           SKY/WX    TMP DP  RH WIND       PRES   REMARKS
MONROE         CLEAR     50  48  93 CALM      30.11S
TALLULAH       CLEAR     47  45  93 CALM      30.11R

$$




USA.gov is the U.S. government's official web portal to all federal, state and local government web resources and services.